User: anonymous   Login
Location: Abraham Lincoln Continuation High School
(33.9711°N, 117.3662°W)
Time: 16:26:42
(UTC+00:00)
Language:

ATLAS 5 CENTAUR R/B - Orbit

View from above orbital plane
View from above orbital plane
View from above satellite
View from above satellite

Ground track
Ground track

The orbit data is extracted from the following two-line orbital elements,

1 32379U 07060B   20333.43740919 +.00007796 +00000-0 +58509-3 0  9994
2 32379 060.7158 089.5746 5136343 100.8484 318.6130 05.44999532027104
Epoch (UTC): 28 November 2020 10:29:52
Eccentricity: 0.5136343
inclination: 60.7158°
perigee height: 256 km
apogee height: 14267 km
right ascension of ascending node: 89.5746°
argument of perigee: 100.8484°
revolutions per day: 5.44999532
mean anomaly at epoch: 318.6130°
orbit number at epoch: 2710

The dashed part of the orbit path shows where the satellite is in the earth's shadow,  

DLR